Theta_e
303 303 305 305 306 306 306 306 305 305 305 304 303 303 303 304 304 304 304 303 303 299 301 302 303 303 304 303 304 306 307 307 307 313 316 317 321 322 320 319 323 319 320 321 322 322 324 322 325 327 325 324 324 325
303 303 304 306 306 306 306 306 305 305 306 305 303 302 303 303 303 304 304 304 303 303 303 303 303 303 303 304 303 304 307 307 306 305 307 309 319 319 318 324 318 325 322 322 324 325 320 321 323 321 320 323 324 327
303 303 304 305 306 306 306 306 306 305 305 305 304 302 302 303 304 303 303 303 303 304 301 299 301 304 303 303 303 305 305 306 307 305 304 309 317 315 321 320 318 320 320 323 325 326 328 328 328 326 324 328 327 325
304 303 304 305 305 305 305 305 305 305 305 305 305 303 303 302 302 303 304 303 304 304 306 303 303 303 304 304 303 303 305 306 302 304 306 307 315 312 318 317 317 318 321 322 323 324 327 328 327 328 333 332 334 328
304 303 304 305 305 305 306 305 305 305 305 305 305 305 304 304 302 303 303 304 304 305 307 304 304 304 304 304 303 303 304 305 303 304 308 308 312 315 316 316 317 321 323 323 331 326 329 322 330 328 329 333 332 328
304 303 304 305 306 306 306 306 306 305 305 305 305 305 305 305 303 304 306 307 305 305 306 306 301 301 304 304 306 307 304 302 303 303 308 308 311 314 318 323 320 323 323 327 329 336 330 332 338 336 335 336 334 332
304 304 303 305 306 307 308 307 307 307 306 305 306 306 306 306 305 305 307 307 306 305 306 306 303 300 303 304 306 307 305 304 305 304 306 310 312 316 320 323 324 323 319 319 320 334 336 337 338 337 338 339 336 334
304 304 303 306 309 310 309 309 308 307 306 306 307 307 307 306 306 306 306 306 306 305 305 307 304 301 305 306 307 304 307 305 305 305 307 313 314 317 324 319 320 320 318 318 316 332 330 331 336 339 338 339 343 347
304 304 304 308 311 311 311 309 309 307 307 306 307 306 306 306 306 306 307 306 306 306 307 307 306 305 305 308 305 306 306 307 305 307 307 310 317 317 319 320 319 315 315 314 316 325 333 332 334 338 340 341 339 354
305 304 304 307 312 312 312 310 309 308 307 306 306 307 307 307 306 306 306 307 306 305 304 306 307 307 304 306 307 307 306 308 312 310 307 311 314 313 311 311 312 312 314 314 316 326 335 337 336 339 340 340 341 349
305 305 304 311 314 314 313 311 308 307 307 307 308 307 306 306 306 305 308 307 306 306 305 305 306 308 304 306 307 305 309 308 312 310 310 311 311 316 321 314 311 310 311 314 316 329 333 335 337 339 340 342 343 351
305 305 305 314 315 314 312 310 309 308 310 309 308 306 306 306 307 307 307 306 304 307 305 309 309 307 307 306 308 309 312 312 316 312 312 314 320 320 321 323 324 325 323 316 334 336 336 339 339 339 339 344 346 347
305 305 309 316 315 314 315 311 310 311 308 308 309 309 309 309 313 311 312 311 309 306 307 312 314 311 309 311 313 313 316 315 311 316 321 321 321 317 319 321 322 324 329 332 334 335 335 338 339 338 339 342 345 345
305 306 316 316 313 317 318 312 310 309 312 310 315 316 317 319 318 317 319 318 316 314 312 313 313 313 313 315 315 316 314 313 316 319 322 321 319 318 318 319 321 323 326 329 331 332 334 336 335 335 336 339 342 341
305 310 317 313 316 318 317 315 312 312 312 315 317 319 319 318 318 317 315 314 315 312 314 313 312 311 312 309 307 309 313 319 319 322 320 319 318 317 319 320 321 322 326 328 328 329 331 331 331 330 332 334 338 339
306 316 314 314 317 319 318 314 313 315 317 316 316 317 315 316 317 317 318 317 315 311 311 312 314 318 318 317 316 316 317 318 317 319 318 318 318 319 320 322 322 323 325 326 325 327 330 328 327 327 329 329 331 334
309 313 314 318 318 317 318 319 318 316 315 317 316 312 313 314 315 314 314 314 313 314 315 315 318 319 316 316 312 312 316 317 317 317 316 316 317 318 318 318 318 320 322 323 326 328 329 329 328 325 323 322 324 326
307 314 317 319 319 318 320 318 316 317 319 316 316 314 312 311 312 312 310 310 312 314 312 316 316 316 317 316 319 318 318 316 315 316 316 315 315 316 317 317 317 317 317 318 320 323 325 325 324 322 321 321 321 320
313 318 320 319 320 320 319 316 315 315 314 312 311 311 311 310 309 308 309 309 310 311 311 311 316 319 318 317 317 317 317 316 316 315 315 314 314 315 315 316 316 316 316 316 317 318 320 319 319 319 319 319 318 317
321 322 319 320 321 320 316 314 317 315 317 314 311 312 312 312 311 310 311 310 308 311 314 315 316 313 312 312 315 316 316 315 314 315 315 314 314 314 314 314 314 315 315 316 316 316 315 315 317 317 317 317 318 318
323 321 320 322 323 320 313 314 315 314 313 313 311 312 312 310 311 311 310 308 311 311 313 312 312 310 310 311 312 313 313 313 313 313 312 315 313 313 313 315 314 315 315 315 315 316 316 315 315 315 315 315 315 315
320 321 321 325 323 315 313 315 315 314 315 313 313 311 313 313 312 311 309 311 312 313 311 309 310 311 308 307 306 310 309 310 311 312 314 313 312 309 307 307 311 313 314 315 315 315 315 315 316 315 314 314 314 315
321 321 323 325 321 309 311 317 319 317 318 316 315 316 314 312 310 309 312 310 311 312 312 310 311 309 306 306 306 305 304 303 302 304 307 307 305 303 303 302 302 303 305 308 313 314 315 316 316 317 317 317 316 316
322 321 323 323 315 312 316 319 317 317 316 318 319 318 316 314 310 312 315 312 312 311 309 309 308 305 305 305 302 303 303 302 302 301 301 300 299 299 299 299 300 301 301 305 308 310 312 314 316 316 316 316 316 317
315 314 316 314 316 319 321 319 319 318 318 318 321 319 317 313 314 314 315 312 312 311 310 309 308 305 304 303 303 304 303 303 301 298 301 300 299 298 298 299 300 300 300 302 304 306 307 308 308 308 307 307 310 313
315 317 319 323 322 322 320 319 318 315 317 319 318 316 314 316 318 316 313 313 313 314 312 311 309 305 304 304 302 303 304 303 302 300 300 300 299 298 296 297 298 299 299 299 300 301 303 306 307 306 306 305 305 305
320 321 317 316 318 320 321 319 318 316 319 320 317 318 315 318 319 315 313 313 313 316 316 314 313 307 305 305 305 305 305 304 303 302 301 300 299 299 299 298 297 298 298 299 301 303 303 305 306 305 304 304 304 305
325 321 323 321 319 317 321 319 319 319 319 317 316 320 319 319 318 314 313 317 317 317 316 316 314 309 307 307 306 306 306 304 304 303 301 299 299 299 299 299 298 298 298 298 301 301 303 303 304 303 302 301 301 303
324 322 322 323 319 317 319 318 319 315 315 316 318 318 318 315 315 314 316 317 315 311 309 308 307 308 307 307 306 306 306 305 302 299 298 296 296 298 299 298 297 296 296 297 298 299 299 300 300 301 301 300 299 298
322 319 322 322 321 319 317 316 317 314 312 314 315 316 316 316 318 318 317 318 313 311 309 309 308 308 307 306 304 303 303 302 299 298 296 295 296 297 298 297 296 296 296 296 296 296 297 297 297 296 295 295 295 295
320 317 319 320 319 316 314 312 315 314 315 316 316 317 319 318 317 318 318 315 310 310 310 308 308 307 307 306 303 301 299 298 298 298 298 297 297 297 297 296 295 295 294 294 294 294 294 295 294 294 293 293 293 293
320 319 320 321 320 316 315 316 314 316 316 318 319 317 318 318 318 314 312 311 311 310 309 309 308 307 306 305 304 301 299 298 297 297 297 297 296 296 295 295 295 294 294 293 293 293 293 293 293 292 292 292 292 292
320 319 318 317 319 319 316 316 316 318 318 319 320 319 319 318 318 312 310 310 310 309 306 304 303 303 304 303 301 299 298 298 297 296 296 296 295 294 294 293 293 293 293 292 293 293 292 293 292 292 292 292 292 292
Wind_Speed
40 41 33 29 26 23 22 19 18 16 15 16 16 15 16 15 10 9 8 9 8 3 7 9 14 12 2 2 2 6 8 3 4 5 3 3 1 3 4 5 4 7 8 6 6 4 5 9 4 16 8 5 8 7
39 41 34 27 25 24 21 18 16 14 14 16 16 16 15 15 13 9 6 10 12 5 6 25 31 25 19 19 7 4 5 8 4 3 3 4 3 3 2 4 5 1 3 4 12 13 6 7 11 6 9 7 7 4
39 41 34 27 24 23 21 18 15 12 12 14 15 16 16 14 13 13 12 10 5 2 6 4 7 18 15 22 24 3 3 4 4 3 2 3 4 1 2 3 4 5 4 2 1 4 7 4 3 7 8 9 7 6
38 41 35 27 23 22 20 18 15 11 10 11 14 15 15 14 12 10 13 15 7 4 3 6 6 17 19 19 20 29 16 6 4 1 3 3 3 1 2 3 2 4 8 8 6 8 8 6 6 9 6 6 6 5
37 40 34 26 23 20 18 16 14 12 10 10 11 13 13 14 13 11 14 20 20 5 3 6 22 18 15 10 16 19 26 9 2 1 2 3 2 3 3 2 3 4 5 4 4 9 5 8 10 7 9 6 7 9
36 39 35 26 23 20 17 15 13 11 10 9 9 10 10 10 9 5 2 2 13 20 2 3 5 7 18 11 7 7 9 4 3 3 3 3 3 1 3 2 2 6 10 7 6 18 5 11 7 14 6 6 5 8
36 37 35 27 21 18 16 15 14 12 10 8 7 8 8 8 10 5 2 3 3 16 2 3 4 5 8 4 2 2 5 3 3 2 2 3 2 3 3 3 6 7 12 14 20 17 16 16 7 13 10 7 3 5
35 36 35 27 17 15 15 15 14 9 6 4 4 3 3 4 7 8 11 14 8 3 3 2 4 5 4 3 2 2 1 2 1 3 3 2 2 1 4 8 11 8 13 8 21 12 5 8 16 18 14 14 9 5
35 36 36 25 16 13 15 16 13 8 4 1 5 7 4 2 3 3 3 6 14 3 2 2 2 3 4 2 2 3 2 1 1 3 3 2 3 5 11 10 10 10 10 12 17 16 11 15 16 18 17 18 10 6
35 37 38 27 15 13 14 15 10 4 6 8 1 2 1 2 1 1 2 2 2 2 2 3 1 3 2 2 3 1 2 1 1 4 1 4 4 12 13 15 11 11 12 10 12 16 14 16 14 16 13 11 7 1
36 38 39 24 14 14 16 14 2 6 4 1 1 1 1 2 2 0 1 1 0 2 3 2 5 3 2 2 3 1 1 1 1 4 4 3 3 3 11 9 10 11 8 9 9 7 6 6 6 8 14 14 8 5
37 39 38 13 17 24 13 9 5 5 1 1 1 2 1 2 1 2 2 2 3 3 2 2 4 4 3 3 1 2 2 1 4 2 1 3 2 8 10 11 10 12 14 12 4 4 8 8 7 6 8 11 8 9
38 41 28 8 25 25 17 3 7 5 8 3 1 1 2 2 3 3 5 3 3 4 4 3 3 3 2 3 3 0 0 4 3 2 2 1 5 8 8 9 12 13 13 7 5 2 5 5 10 7 7 13 7 8
39 38 10 16 31 24 12 4 11 10 1 2 4 7 5 5 4 3 7 7 6 2 7 2 2 2 2 2 2 2 3 3 3 2 1 1 8 12 10 7 9 11 9 5 4 4 5 5 5 10 11 11 9 5
39 24 9 22 27 17 10 12 12 3 1 2 3 6 3 4 5 5 5 3 4 1 6 3 3 2 2 2 2 2 3 1 1 3 5 4 10 11 10 8 7 10 8 4 6 3 4 3 3 5 12 11 9 6
35 7 13 23 20 11 8 11 2 2 1 2 4 4 4 3 6 7 8 10 9 2 1 2 2 1 4 3 4 6 5 4 4 6 9 10 11 8 8 6 5 8 7 3 4 4 3 4 5 4 9 12 10 6
20 6 16 18 17 9 5 4 2 3 3 5 4 2 2 3 4 4 3 5 7 5 5 3 6 7 3 5 5 4 5 7 8 8 7 10 10 10 7 7 9 8 7 5 5 6 3 6 5 7 6 12 12 10
7 18 11 17 16 4 2 2 2 4 5 2 3 5 4 2 4 4 5 4 4 3 3 2 2 6 4 2 6 2 3 5 7 10 11 13 16 16 11 8 13 16 13 16 14 13 13 11 7 3 6 8 9 11
18 11 10 14 12 4 4 4 4 2 2 2 3 3 2 4 3 4 4 7 4 4 3 2 5 3 3 2 3 5 6 5 4 5 7 13 17 15 18 17 20 20 20 20 18 14 16 21 14 12 11 11 8 11
4 4 13 10 7 2 3 3 2 3 2 3 2 4 2 3 4 4 5 4 3 3 5 5 3 2 2 2 2 4 2 4 3 4 4 6 10 14 17 20 18 20 17 15 15 25 22 21 18 17 19 18 13 12
2 7 8 7 3 2 2 1 2 3 1 1 2 2 3 3 3 4 4 4 5 2 3 2 3 3 6 5 7 11 7 6 3 1 3 4 12 15 13 13 13 12 12 10 6 13 14 11 13 20 20 19 19 17
5 8 3 2 2 3 1 3 3 1 2 1 2 2 2 3 4 4 3 5 3 3 1 0 1 3 5 6 6 12 13 14 14 8 7 7 7 8 9 15 12 5 5 6 8 9 12 14 13 12 12 11 13 16
6 4 3 2 1 3 5 2 1 1 1 3 2 1 3 2 2 2 3 2 3 3 4 3 4 6 8 15 18 24 22 21 13 14 15 14 18 22 21 24 25 16 11 18 20 13 5 3 4 7 8 8 8 11
4 1 1 1 2 4 2 1 1 2 1 2 1 1 2 2 2 3 1 2 3 4 3 3 4 4 7 11 5 7 12 16 17 20 21 16 10 16 19 20 23 23 23 22 22 25 21 10 6 8 11 11 9 8
4 3 4 4 2 1 2 2 1 1 2 3 2 3 2 2 1 2 1 3 2 2 3 3 6 3 3 1 3 8 14 19 14 5 17 21 20 19 20 21 20 25 29 25 22 22 20 20 21 22 22 20 15 11
1 3 5 4 2 2 2 2 2 3 3 3 3 1 1 2 1 3 2 2 2 2 2 1 4 3 1 2 2 3 8 12 19 16 17 22 22 16 8 7 7 20 28 24 20 18 18 13 12 17 18 21 23 18
2 3 3 2 2 2 2 2 1 0 1 2 1 1 1 1 2 2 2 3 3 7 6 2 7 13 9 8 8 9 10 10 13 16 19 21 23 21 21 16 13 20 26 26 27 24 18 12 14 15 16 20 19 19
5 3 4 2 2 2 3 3 2 1 2 2 2 1 3 2 3 3 4 4 9 9 11 4 5 19 17 13 12 11 9 10 10 10 15 18 19 20 21 22 22 23 22 27 25 25 23 19 17 16 18 19 19 17
3 2 2 3 3 2 3 4 3 3 4 3 4 2 2 2 2 0 2 7 5 11 17 17 13 18 13 11 7 6 6 6 11 7 7 4 7 16 16 19 20 21 21 21 21 20 20 21 19 16 16 18 18 20
4 4 3 2 3 4 4 5 3 3 2 5 4 2 3 3 3 4 5 9 5 10 11 13 16 15 13 13 15 16 14 12 12 11 3 3 7 14 15 15 17 19 19 19 19 18 17 17 18 20 22 20 18 18
3 3 2 3 3 3 4 3 2 3 3 3 3 3 3 1 3 5 4 6 14 16 17 17 14 11 12 11 15 14 9 10 11 10 9 9 10 11 11 13 14 15 15 15 16 15 15 14 15 16 17 17 16 17
2 5 4 2 3 3 1 2 2 2 2 2 2 2 1 2 1 4 2 16 19 16 15 15 14 12 12 11 12 15 16 13 10 10 11 11 10 10 11 12 12 13 13 14 17 16 16 15 13 14 15 15 15 16
1 2 2 2 1 1 2 2 1 2 3 2 2 4 3 5 3 3 6 10 15 20 21 20 17 15 13 14 16 15 12 11 12 11 12 12 11 10 11 12 12 12 12 13 15 16 17 18 18 18 17 15 15 16
Wind_Direction
347 347 345 339 334 329 323 314 299 279 257 262 267 274 274 271 263 245 238 224 211 233 263 238 269 259 218 192 249 313 318 319 297 22 5 299 326 299 311 287 291 163 158 181 206 188 232 177 149 190 202 246 174 207
347 347 347 339 336 330 327 320 307 295 266 250 255 265 267 269 260 248 236 241 229 230 272 291 281 270 244 244 268 196 219 279 266 38 1 308 320 345 23 300 327 149 132 238 186 218 242 205 185 193 172 200 186 192
347 347 347 341 337 333 328 324 320 307 287 260 255 260 268 267 279 245 236 257 231 249 273 269 252 306 282 248 235 246 218 233 284 153 225 263 286 39 346 290 291 281 4 316 318 219 196 188 76 147 161 185 192 207
348 347 348 344 340 334 329 328 329 319 301 275 259 259 262 260 269 274 245 251 229 282 277 283 310 287 289 269 258 222 242 240 275 340 266 257 273 53 281 273 287 265 337 318 282 16 350 338 150 158 141 143 176 178
349 347 349 345 340 333 332 333 333 329 311 292 278 271 264 257 256 272 269 259 248 215 281 296 303 291 308 282 255 227 220 235 236 275 256 257 261 337 281 284 269 332 335 356 283 304 229 273 315 172 131 142 170 165
349 348 350 343 337 330 323 329 335 330 314 301 286 279 271 261 249 268 284 40 235 205 261 297 280 295 303 311 277 232 194 169 167 179 245 278 272 356 286 261 271 320 346 324 296 317 231 285 333 354 114 138 158 162
347 348 352 343 338 331 327 333 331 323 312 308 295 281 271 247 219 204 225 137 9 182 233 282 291 278 300 301 289 218 166 171 150 198 257 252 303 103 271 252 258 329 341 335 354 1 6 2 338 332 27 5 39 94
344 348 354 347 340 335 330 332 330 322 310 301 290 283 242 212 229 249 266 253 230 193 178 267 272 327 354 315 317 344 129 61 207 204 305 245 342 72 252 249 283 325 335 336 345 344 343 337 5 11 28 30 43 48
342 348 354 347 337 329 328 328 331 327 320 230 157 119 116 167 191 249 227 181 179 192 219 228 200 270 344 289 273 344 50 113 341 199 237 142 180 229 247 269 290 327 328 318 319 329 354 16 8 3 12 18 20 18
341 346 352 350 333 320 327 329 333 4 131 133 175 248 129 293 171 153 239 195 162 175 197 228 202 267 13 10 301 32 359 171 195 238 126 200 240 243 240 261 283 296 294 313 323 335 345 5 3 355 346 345 351 171
340 345 350 348 337 333 333 324 285 144 148 323 268 245 85 188 315 152 265 268 206 251 215 215 196 213 182 199 254 193 202 194 264 272 170 245 270 339 336 285 291 287 297 265 264 270 322 330 343 338 335 344 1 75
339 343 349 352 357 346 340 302 197 186 185 229 166 91 33 11 13 338 281 252 225 232 242 215 187 200 246 185 180 251 189 92 247 281 220 264 275 336 334 334 323 312 300 293 227 21 6 357 353 335 319 349 12 68
340 344 352 13 352 352 350 281 164 140 134 162 138 102 9 339 327 349 328 284 258 199 197 236 167 167 231 215 229 346 107 232 321 249 232 229 326 321 330 328 318 310 280 260 276 56 35 17 351 358 352 349 23 77
341 347 6 356 354 350 356 127 146 151 58 42 11 1 23 349 333 288 308 313 296 232 157 179 21 58 324 38 2 295 37 290 299 260 267 248 308 314 312 304 305 301 302 310 307 350 356 33 349 347 5 352 347 347
342 349 15 356 351 11 55 103 140 131 126 67 35 6 335 252 284 276 270 284 322 22 120 121 110 94 32 49 342 354 327 5 267 299 296 303 298 299 300 292 281 284 294 286 285 303 339 5 34 333 349 3 351 316
345 348 355 350 358 32 85 107 112 24 13 51 43 351 305 331 332 352 352 349 5 72 94 43 113 355 56 5 6 19 355 6 318 311 319 315 312 302 293 290 272 266 254 261 282 292 273 30 30 5 337 359 353 340
349 5 348 358 13 51 54 9 13 14 61 25 336 279 259 276 271 289 307 314 328 16 23 28 28 9 332 14 21 18 355 336 320 327 343 346 344 355 355 18 18 356 3 334 287 316 342 54 21 34 356 350 359 351
320 339 355 1 10 22 359 11 43 41 18 0 15 308 321 269 317 336 329 329 20 28 24 69 76 3 31 31 29 354 308 324 340 1 21 17 12 14 4 32 47 34 29 21 20 26 28 43 31 20 23 10 30 26
323 343 1 359 4 7 30 21 47 50 287 293 303 313 319 290 272 277 315 350 9 75 94 29 49 22 346 312 332 330 342 350 339 341 4 14 14 14 9 22 41 35 31 28 36 33 33 51 39 32 42 58 59 48
344 344 351 6 18 58 37 347 52 87 340 278 352 347 315 289 299 317 334 7 18 23 21 36 26 271 233 247 209 270 263 291 343 346 351 2 10 14 23 35 40 33 25 15 40 65 50 45 44 38 39 44 50 43
11 345 344 0 2 36 135 150 22 194 233 46 307 23 301 342 350 349 336 331 37 19 28 353 347 312 319 294 272 271 300 310 313 325 318 331 342 359 2 10 21 30 40 25 29 56 56 59 51 52 46 40 42 44
336 348 336 355 11 360 282 220 156 199 92 252 356 54 357 341 322 320 306 23 350 295 307 275 311 343 12 16 354 20 16 26 17 12 10 14 25 15 10 5 3 357 1 10 26 41 40 24 49 58 60 52 59 53
340 338 332 353 45 35 266 131 113 183 73 307 4 23 321 324 260 330 39 271 275 313 322 54 85 69 57 50 58 48 44 48 39 35 40 34 31 24 14 14 18 15 6 358 5 358 331 328 357 22 17 6 13 36
328 323 51 297 140 257 352 290 124 122 180 146 213 242 243 237 340 54 358 285 275 313 32 26 92 59 42 38 28 19 38 63 56 42 33 25 21 9 16 13 22 20 12 17 35 43 40 21 340 346 359 348 356 16
44 309 97 302 220 313 259 285 233 118 213 187 165 275 252 91 72 5 274 267 292 314 319 57 78 70 107 69 25 55 80 80 82 61 36 35 32 24 22 24 28 28 25 23 18 18 27 48 60 52 43 33 30 23
136 225 150 212 248 155 240 340 281 197 170 203 234 296 69 96 119 261 241 214 247 252 248 201 129 126 33 141 150 98 92 91 80 73 49 43 39 37 24 28 18 13 25 18 15 16 23 38 63 66 56 48 47 41
317 268 247 234 172 127 289 254 277 60 103 198 238 74 109 14 275 268 284 234 234 263 263 240 158 167 167 162 126 104 93 88 83 79 55 46 47 52 51 41 22 19 33 33 37 33 29 46 66 62 57 59 57 53
225 200 185 257 284 194 195 183 236 217 219 206 89 93 163 190 230 231 219 243 262 312 315 321 160 172 162 148 134 120 106 102 90 70 46 45 43 43 41 40 38 39 43 42 44 44 49 54 53 57 59 58 57 57
237 232 132 262 248 235 213 199 224 225 178 134 150 183 197 247 328 26 13 360 52 90 100 101 111 151 136 130 123 94 67 76 71 57 37 4 358 16 29 31 35 42 42 46 52 50 47 51 52 54 56 53 52 51
254 157 178 226 188 230 238 181 214 176 161 142 127 67 30 354 19 353 331 4 71 110 117 123 149 141 129 115 93 79 74 72 65 68 71 356 350 13 25 34 41 45 43 46 42 42 44 45 47 48 49 45 37 33
170 143 200 196 226 234 232 196 122 105 81 69 52 113 168 225 332 25 30 105 132 119 113 105 102 118 124 138 133 116 92 74 68 58 41 26 21 31 50 53 49 39 40 44 41 37 35 39 32 28 31 31 31 34
162 188 169 228 268 275 277 71 82 96 86 85 37 73 90 68 329 328 101 146 129 116 120 119 105 98 99 98 105 109 108 91 68 43 29 32 50 61 53 45 35 27 28 32 34 35 32 28 22 20 20 16 15 16
191 167 164 121 36 335 306 83 70 91 78 105 160 145 169 159 171 220 144 156 143 136 124 115 113 112 113 121 119 113 97 80 55 58 66 66 64 56 49 45 39 31 29 36 36 32 29 26 25 23 22 21 18 17